• In Deutschland
  • Länderverzeichnis
  • Für 7 Tage
  • Wassertemperatur
  • Satellitenkarten
  • Wetterkarte
  • Widgets
  • user-avatar
    Anmelden

    Stündliche Wetter Utena

    Heute, 24 September, Sonntag

    Zeit Temperatur Niederschläge Wind Luftdruck Luftfeuchtigkeit
    00:00 +11°C° 0 mm 3 m/S 761 mmHg 90%
    01:00 +12°C° 0 mm 2 m/S 761 mmHg 92%
    02:00 +10°C° 0 mm 3 m/S 761 mmHg 93%
    03:00 +10°C° 0 mm 3 m/S 761 mmHg 93%
    04:00 +10°C° 0 mm 3 m/S 761 mmHg 93%
    05:00 +9°C° 0 mm 3 m/S 761 mmHg 93%
    06:00 +10°C° 0 mm 3 m/S 761 mmHg 90%
    07:00 +11°C° 0 mm 3 m/S 761 mmHg 87%
    08:00 +11°C° 0 mm 4 m/S 762 mmHg 84%
    09:00 +13°C° 0 mm 4 m/S 762 mmHg 78%
    10:00 +14°C° 0 mm 4 m/S 762 mmHg 72%
    11:00 +16°C° 0 mm 5 m/S 762 mmHg 66%
    12:00 +17°C° 0 mm 5 m/S 762 mmHg 64%
    13:00 +19°C° 0 mm 5 m/S 762 mmHg 62%
    14:00 +19°C° 0 mm 5 m/S 762 mmHg 60%
    15:00 +19°C° 0 mm 4 m/S 762 mmHg 64%
    16:00 +18°C° 0 mm 4 m/S 762 mmHg 67%
    17:00 +17°C° 0 mm 3 m/S 762 mmHg 71%
    18:00 +16°C° 0 mm 3 m/S 763 mmHg 75%
    19:00 +14°C° 0 mm 3 m/S 763 mmHg 79%
    20:00 +13°C° 0 mm 4 m/S 763 mmHg 82%
    21:00 +12°C° 0 mm 3 m/S 763 mmHg 84%
    22:00 +12°C° 0 mm 3 m/S 764 mmHg 85%
    23:00 +11°C° 0 mm 3 m/S 764 mmHg 87%

    Morgen, 25 September, Montag

    Zeit Temperatur Niederschläge Wind Luftdruck Luftfeuchtigkeit
    00:00 +11°C° 0 mm 3 m/S 764 mmHg 88%
    01:00 +10°C° 0 mm 3 m/S 764 mmHg 89%
    02:00 +10°C° 0 mm 3 m/S 764 mmHg 90%
    03:00 +10°C° 0 mm 4 m/S 764 mmHg 91%
    04:00 +8°C° 0 mm 4 m/S 764 mmHg 91%
    05:00 +8°C° 0 mm 4 m/S 764 mmHg 92%
    06:00 +10°C° 0 mm 4 m/S 765 mmHg 89%
    07:00 +10°C° 0 mm 4 m/S 765 mmHg 87%
    08:00 +10°C° 0 mm 4 m/S 765 mmHg 84%
    09:00 +12°C° 0 mm 5 m/S 765 mmHg 78%
    10:00 +14°C° 0 mm 5 m/S 765 mmHg 72%
    11:00 +15°C° 0 mm 5 m/S 765 mmHg 66%
    12:00 +16°C° 0 mm 5 m/S 765 mmHg 63%
    13:00 +17°C° 0 mm 5 m/S 765 mmHg 61%
    14:00 +19°C° 0 mm 5 m/S 765 mmHg 59%
    15:00 +18°C° 0 mm 4 m/S 765 mmHg 63%
    16:00 +17°C° 0 mm 4 m/S 765 mmHg 67%
    17:00 +17°C° 0 mm 3 m/S 765 mmHg 71%
    18:00 +16°C° 0 mm 3 m/S 765 mmHg 75%
    19:00 +13°C° 0 mm 3 m/S 765 mmHg 79%
    20:00 +12°C° 0 mm 3 m/S 766 mmHg 83%
    21:00 +12°C° 0 mm 3 m/S 766 mmHg 85%
    22:00 +11°C° 0 mm 3 m/S 766 mmHg 87%
    23:00 +11°C° 0 mm 3 m/S 766 mmHg 88%

    übermorgen, 26 September, Dienstag

    Zeit Temperatur Niederschläge Wind Luftdruck Luftfeuchtigkeit
    00:00 +10°C° 0 mm 3 m/S 766 mmHg 90%
    01:00 +10°C° 0 mm 3 m/S 766 mmHg 91%
    02:00 +9°C° 0 mm 3 m/S 767 mmHg 93%
    03:00 +9°C° 0 mm 3 m/S 767 mmHg 93%
    04:00 +9°C° 0 mm 3 m/S 767 mmHg 93%
    05:00 +8°C° 0 mm 3 m/S 767 mmHg 94%
    06:00 +9°C° 0 mm 3 m/S 767 mmHg 90%
    07:00 +9°C° 0 mm 3 m/S 767 mmHg 87%
    08:00 +10°C° 0 mm 3 m/S 767 mmHg 83%
    09:00 +12°C° 0 mm 3 m/S 767 mmHg 77%
    10:00 +13°C° 0 mm 3 m/S 767 mmHg 72%
    11:00 +15°C° 0 mm 4 m/S 767 mmHg 66%
    12:00 +17°C° 0 mm 3 m/S 767 mmHg 63%
    13:00 +18°C° 0 mm 3 m/S 767 mmHg 61%
    14:00 +18°C° 0 mm 3 m/S 767 mmHg 58%
    15:00 +18°C° 0 mm 3 m/S 767 mmHg 63%
    16:00 +17°C° 0 mm 3 m/S 767 mmHg 67%
    17:00 +16°C° 0 mm 2 m/S 767 mmHg 71%
    18:00 +15°C° 0 mm 2 m/S 767 mmHg 76%
    19:00 +13°C° 0 mm 2 m/S 767 mmHg 81%
    20:00 +12°C° 0 mm 2 m/S 767 mmHg 86%
    21:00 +10°C° 0 mm 2 m/S 768 mmHg 87%
    22:00 +10°C° 0 mm 2 m/S 768 mmHg 88%
    23:00 +10°C° 0 mm 2 m/S 768 mmHg 90%

    27 September, Mittwoch

    Zeit Temperatur Niederschläge Wind Luftdruck Luftfeuchtigkeit
    00:00 +9°C° 0 mm 2 m/S 768 mmHg 91%
    01:00 +9°C° 0 mm 2 m/S 768 mmHg 93%
    02:00 +9°C° 0 mm 2 m/S 768 mmHg 95%
    03:00 +9°C° 0 mm 2 m/S 768 mmHg 95%
    04:00 +8°C° 0 mm 2 m/S 769 mmHg 96%
    05:00 +8°C° 0 mm 2 m/S 769 mmHg 97%
    06:00 +9°C° 0 mm 2 m/S 769 mmHg 95%
    07:00 +9°C° 0 mm 3 m/S 769 mmHg 92%
    08:00 +9°C° 0 mm 3 m/S 769 mmHg 90%
    09:00 +11°C° 0 mm 3 m/S 769 mmHg 84%
    10:00 +12°C° 0 mm 3 m/S 769 mmHg 77%
    11:00 +14°C° 0 mm 3 m/S 769 mmHg 71%
    12:00 +16°C° 0 mm 3 m/S 769 mmHg 67%
    13:00 +16°C° 0 mm 3 m/S 769 mmHg 64%
    14:00 +17°C° 0 mm 3 m/S 769 mmHg 60%
    15:00 +16°C° 0 mm 2 m/S 769 mmHg 64%
    16:00 +16°C° 0 mm 2 m/S 769 mmHg 68%
    17:00 +15°C° 0 mm 2 m/S 769 mmHg 71%
    18:00 +14°C° 0 mm 2 m/S 769 mmHg 76%
    19:00 +12°C° 0 mm 2 m/S 769 mmHg 80%
    20:00 +10°C° 0 mm 2 m/S 769 mmHg 84%
    21:00 +9°C° 0 mm 2 m/S 769 mmHg 85%
    22:00 +9°C° 0 mm 2 m/S 769 mmHg 86%
    23:00 +8°C° 0 mm 2 m/S 769 mmHg 87%

    28 September, Donnerstag

    Zeit Temperatur Niederschläge Wind Luftdruck Luftfeuchtigkeit
    00:00 +9°C° 0 mm 1 m/S 769 mmHg 88%
    01:00 +9°C° 0 mm 1 m/S 769 mmHg 89%
    02:00 +8°C° 0 mm 1 m/S 769 mmHg 89%
    03:00 +8°C° 0 mm 1 m/S 769 mmHg 90%
    04:00 +8°C° 0 mm 1 m/S 769 mmHg 90%
    05:00 +8°C° 0 mm 1 m/S 769 mmHg 91%
    06:00 +8°C° 0 mm 1 m/S 769 mmHg 88%
    07:00 +9°C° 0 mm 1 m/S 769 mmHg 85%
    08:00 +10°C° 0 mm 1 m/S 769 mmHg 82%
    09:00 +12°C° 0 mm 1 m/S 769 mmHg 76%
    10:00 +13°C° 0 mm 1 m/S 769 mmHg 69%
    11:00 +15°C° 0 mm 1 m/S 769 mmHg 63%
    12:00 +16°C° 0 mm 1 m/S 768 mmHg 61%
    13:00 +16°C° 0 mm 1 m/S 768 mmHg 59%
    14:00 +18°C° 0 mm 1 m/S 768 mmHg 57%
    15:00 +16°C° 0 mm 1 m/S 768 mmHg 61%
    16:00 +16°C° 0 mm 1 m/S 768 mmHg 66%
    17:00 +15°C° 0 mm 1 m/S 767 mmHg 70%
    18:00 +14°C° 0 mm 1 m/S 768 mmHg 74%
    19:00 +13°C° 0 mm 1 m/S 768 mmHg 77%
    20:00 +12°C° 0 mm 1 m/S 768 mmHg 80%
    21:00 +12°C° 0 mm 1 m/S 768 mmHg 80%
    22:00 +12°C° 0 mm 1 m/S 768 mmHg 80%
    23:00 +12°C° 0 mm 1 m/S 768 mmHg 80%

    29 September, Freitag

    Zeit Temperatur Niederschläge Wind Luftdruck Luftfeuchtigkeit
    00:00 +12°C° 0 mm 1 m/S 768 mmHg 80%
    01:00 +12°C° 0 mm 1 m/S 768 mmHg 81%
    02:00 +12°C° 0 mm 1 m/S 768 mmHg 81%
    03:00 +12°C° 0 mm 1 m/S 768 mmHg 82%
    04:00 +12°C° 0 mm 1 m/S 768 mmHg 82%
    05:00 +11°C° 0 mm 1 m/S 768 mmHg 83%
    06:00 +11°C° 0 mm 1 m/S 768 mmHg 83%
    07:00 +11°C° 0 mm 1 m/S 768 mmHg 84%
    08:00 +11°C° 0 mm 1 m/S 768 mmHg 84%
    09:00 +12°C° 0 mm 1 m/S 768 mmHg 81%
    10:00 +13°C° 0 mm 1 m/S 767 mmHg 78%
    11:00 +13°C° 0 mm 1 m/S 767 mmHg 75%
    12:00 +14°C° 0 mm 1 m/S 767 mmHg 71%
    13:00 +14°C° 0 mm 1 m/S 767 mmHg 66%
    14:00 +15°C° 0 mm 1 m/S 767 mmHg 62%
    15:00 +14°C° 0 mm 1 m/S 766 mmHg 64%
    16:00 +14°C° 0 mm 1 m/S 766 mmHg 67%
    17:00 +13°C° 0 mm 1 m/S 766 mmHg 69%
    18:00 +12°C° 0 mm 1 m/S 766 mmHg 73%
    19:00 +11°C° 0 mm 1 m/S 766 mmHg 76%
    20:00 +8°C° 0 mm 0 m/S 766 mmHg 80%
    21:00 +8°C° 0 mm 0 m/S 765 mmHg 81%
    22:00 +8°C° 0 mm 0 m/S 765 mmHg 82%
    23:00 +7°C° 0 mm 0 m/S 765 mmHg 84%
    Mehr zeigen